Theta_e
307 307 307 309 310 308 310 310 309 310 311 312 313 314 314 313 315 316 319 320 321 322 323 323 320 318 314 306 305 315 324 326 319 318 314 310 305 303 301 300 300 298 299 304 304 305 304
306 306 308 307 308 309 309 311 310 309 310 310 312 314 314 314 313 315 317 319 320 321 322 323 321 320 309 296 310 317 318 320 317 313 312 313 307 306 301 300 298 300 300 302 304 303 304
308 308 308 307 306 308 309 310 311 309 308 309 311 313 314 314 313 314 316 319 319 320 322 321 320 312 303 298 311 313 315 315 318 314 311 314 313 307 304 299 302 300 296 298 301 302 301
308 306 307 308 309 310 309 309 310 310 308 309 311 313 314 314 313 313 315 318 318 319 321 321 319 305 295 305 307 310 313 314 319 318 314 315 314 306 302 301 298 294 294 290 295 301 301
309 308 309 310 310 310 310 308 309 310 310 311 312 313 313 314 313 313 315 317 318 318 320 320 307 299 292 311 302 308 310 310 315 316 316 314 309 302 301 295 291 291 285 288 292 299 299
308 309 309 310 310 310 310 308 308 309 310 311 312 313 313 314 313 313 314 317 317 316 317 310 308 296 296 296 305 307 309 314 311 310 309 305 300 295 292 290 284 287 287 288 288 291 295
307 307 308 309 309 309 309 310 309 309 310 311 312 312 313 312 311 312 311 310 304 303 304 299 298 296 297 303 307 304 309 311 308 305 296 300 294 289 292 293 291 290 288 286 288 291 290
305 306 307 308 309 309 309 309 309 310 309 310 311 312 312 311 310 312 307 303 304 306 296 304 302 301 302 303 298 302 310 301 302 294 298 295 288 293 297 294 291 290 287 285 288 291 289
304 305 306 307 308 309 308 309 308 308 309 310 310 311 312 311 311 306 303 304 309 309 294 296 301 299 300 301 296 298 305 301 297 294 294 289 289 296 296 292 289 286 286 285 286 288 288
308 307 307 308 308 308 308 308 308 308 309 310 309 311 311 312 302 302 302 307 309 310 287 289 296 299 302 301 295 302 306 301 295 290 292 290 293 293 291 290 291 286 289 288 288 286 281
309 309 309 308 308 308 308 308 308 308 309 310 309 311 310 305 299 300 304 307 308 303 276 292 295 307 303 297 296 296 305 300 291 292 291 285 289 290 289 290 294 289 290 289 288 284 284
310 310 310 310 309 309 308 308 308 308 308 309 310 310 309 302 301 304 304 304 303 284 275 288 296 295 294 296 294 299 299 300 298 293 291 287 292 292 290 292 294 292 289 288 286 284 275
310 310 309 309 310 309 308 308 308 307 309 309 310 308 302 301 296 305 300 299 281 276 285 285 288 293 293 291 292 293 292 291 288 284 284 287 288 291 293 289 292 289 284 277 276 275 272
310 310 310 310 309 310 308 308 308 308 309 309 308 306 305 302 304 300 293 288 271 279 281 288 288 293 289 292 291 290 291 288 290 286 284 282 279 289 293 290 288 287 283 278 271 273 274
310 310 311 309 309 309 309 309 309 309 309 308 306 298 301 301 302 299 285 276 273 278 284 284 287 286 286 290 290 290 290 290 290 289 284 282 282 290 292 292 293 288 284 285 278 270 272
310 311 310 310 309 309 309 309 309 309 308 307 296 297 296 300 298 291 279 275 280 287 287 286 280 283 280 282 287 288 287 290 290 291 290 287 281 287 290 292 291 289 290 281 276 267 267
310 310 310 310 309 309 309 309 309 308 308 305 293 288 296 298 292 282 273 277 282 288 288 284 279 281 282 281 283 283 286 286 287 290 293 289 285 284 289 288 286 286 284 285 283 278 272
310 309 309 309 309 309 309 309 307 306 305 298 288 283 296 292 278 277 277 279 285 284 286 286 286 283 281 282 280 282 281 284 289 289 288 292 286 280 285 287 289 290 287 287 278 275 278
309 310 309 309 309 309 308 308 306 305 303 293 286 287 292 287 271 276 279 277 282 282 283 283 283 285 286 280 279 278 280 288 290 287 284 287 285 279 281 284 285 286 287 288 286 283 278
308 308 308 308 308 307 307 307 305 303 302 293 285 277 281 280 274 274 270 270 274 283 283 283 283 284 284 281 284 280 282 287 290 288 290 289 285 283 277 279 284 283 285 288 288 283 283
307 307 307 307 306 306 307 307 306 303 299 289 282 278 276 272 271 271 275 276 274 273 283 283 281 280 280 274 278 279 284 284 288 290 289 288 281 285 285 285 284 283 284 286 286 287 282
307 307 307 307 305 306 306 305 304 303 298 283 278 278 280 278 279 277 272 271 275 273 278 279 278 281 282 276 277 273 279 282 282 286 286 288 280 282 280 284 284 282 284 283 284 286 286
306 306 306 305 305 305 304 304 303 300 295 283 283 281 280 280 271 271 272 272 278 279 280 282 281 280 279 281 282 283 285 284 283 280 282 282 281 276 269 280 280 272 280 283 284 286 285
306 306 306 305 305 305 305 304 303 300 294 286 282 281 276 272 274 273 279 280 279 280 278 280 281 280 282 285 284 283 283 282 284 283 285 278 277 277 271 270 266 278 285 285 284 287 288
305 305 305 305 305 305 304 304 303 301 298 286 283 280 275 274 275 277 278 279 279 279 280 281 282 282 283 282 278 266 267 271 273 280 282 283 280 270 265 270 273 277 279 281 281 281 287
303 304 305 305 305 305 305 304 303 302 298 287 284 283 280 275 272 279 276 279 270 267 270 278 282 283 285 281 267 260 261 259 267 272 283 283 283 272 264 264 264 276 281 284 286 278 286
301 302 302 303 303 303 304 304 305 303 300 290 286 285 282 275 277 277 273 274 278 274 268 272 278 279 284 272 262 261 262 268 264 264 274 277 277 273 266 269 270 279 282 284 273 277 283
299 300 300 301 301 302 302 302 302 303 301 292 287 287 284 275 277 282 281 278 277 274 270 274 276 277 273 266 264 262 263 268 268 272 274 272 270 268 269 266 265 281 281 280 283 285 285
297 298 299 300 300 300 301 301 301 301 302 295 286 289 288 281 279 284 284 283 283 282 277 277 276 276 278 269 266 264 264 262 265 263 277 270 275 271 273 273 281 283 284 285 284 283 284
Wind_Speed
12 13 15 15 17 12 14 13 10 11 11 11 9 11 10 10 10 10 9 9 7 8 9 12 13 9 5 3 7 4 4 3 2 2 2 1 3 3 4 4 5 3 1 4 3 6 2
14 15 17 15 17 16 13 14 12 10 12 12 11 11 11 8 9 10 8 8 3 10 10 10 8 9 6 6 2 5 5 1 2 2 3 2 1 3 7 6 4 1 2 1 4 3 3
18 15 16 19 14 15 15 14 13 11 11 13 13 14 12 10 9 8 8 8 0 4 9 11 11 4 3 9 1 4 2 1 1 2 4 1 3 2 6 3 1 0 2 2 5 2 2
18 17 17 18 18 17 14 14 13 13 12 13 13 15 12 10 8 7 8 6 3 2 8 11 10 3 5 2 1 2 2 2 2 3 3 4 2 5 4 3 6 5 5 2 2 0 2
19 17 19 21 20 16 17 13 14 14 8 12 13 15 11 10 6 5 7 5 4 2 7 12 5 5 5 1 2 3 1 4 3 2 4 3 5 4 3 6 3 6 4 2 4 2 1
18 19 19 17 16 16 15 12 14 13 10 10 13 11 11 9 5 5 6 8 7 2 4 3 4 2 2 4 3 5 1 3 4 4 5 5 6 3 3 3 7 6 5 3 5 3 3
21 19 18 16 14 13 12 13 13 12 11 9 12 7 10 7 4 4 2 3 5 4 3 3 7 2 4 3 3 1 3 3 3 5 5 2 5 7 8 6 3 5 4 5 3 3 1
22 20 18 15 14 12 10 10 7 12 9 7 8 7 8 5 3 3 3 2 3 5 3 2 2 2 2 2 5 1 2 5 4 5 5 4 6 5 6 7 5 5 5 3 1 3 2
18 20 19 15 16 13 11 10 8 8 9 5 4 7 7 4 4 4 3 1 2 3 2 3 2 2 3 3 4 7 5 4 4 5 3 5 3 6 6 5 6 1 6 5 3 1 3
21 21 21 19 16 14 12 9 8 7 7 4 3 8 7 8 6 2 3 1 2 3 3 3 9 4 1 2 5 1 3 5 3 5 5 2 0 6 4 5 6 6 6 6 6 4 4
21 21 23 22 20 16 13 10 8 5 5 5 5 10 9 5 5 2 4 4 4 3 3 8 5 2 2 2 9 3 0 4 8 6 7 4 7 6 3 5 6 3 5 7 3 5 2
24 23 22 23 22 19 16 11 9 5 5 7 10 16 14 5 3 2 4 2 3 1 3 4 4 7 7 1 1 4 3 5 4 4 4 3 2 4 6 2 5 9 7 8 5 3 2
24 22 21 20 19 19 18 14 11 6 8 9 18 13 7 1 4 3 2 4 2 3 2 3 1 7 8 6 4 3 8 6 6 6 4 1 3 2 4 7 4 3 6 3 3 1 7
25 24 19 14 18 17 19 17 13 9 12 19 17 15 8 4 4 3 4 4 5 1 3 3 4 8 5 5 2 3 9 7 4 3 4 6 2 7 4 6 8 5 5 6 8 6 3
26 24 16 8 17 20 21 18 13 11 20 22 16 3 3 5 6 1 6 5 4 1 3 3 3 1 1 4 3 4 8 2 8 5 4 5 3 1 2 4 9 6 6 5 7 3 3
26 26 21 20 20 23 21 18 15 21 21 12 4 4 3 9 7 5 6 5 3 2 1 3 6 5 7 7 4 5 8 3 1 5 2 3 3 1 3 3 2 6 9 3 3 2 4
28 26 26 26 25 24 21 18 22 23 17 14 5 5 4 8 5 7 5 3 3 3 4 5 1 4 6 4 4 4 2 7 10 8 3 1 1 1 3 8 8 4 3 3 5 5 6
26 26 26 25 24 23 24 26 24 18 15 12 4 5 5 4 7 2 3 3 2 2 3 2 3 4 2 2 2 2 3 2 2 6 1 2 2 4 6 2 2 2 5 5 5 4 3
29 28 25 23 24 27 25 25 22 16 10 3 4 2 2 4 5 3 2 3 3 2 3 2 3 3 1 3 4 2 3 4 6 6 4 7 4 4 1 2 3 5 3 6 5 3 7
27 27 28 27 26 23 19 18 15 14 7 5 4 3 5 5 1 7 5 2 3 2 3 4 3 3 2 3 3 2 1 2 2 4 11 2 3 3 6 3 3 5 6 10 9 5 14
22 23 24 24 22 18 15 14 10 9 5 6 4 2 2 0 4 4 3 2 3 2 3 4 3 3 3 3 2 1 1 1 1 2 5 6 3 4 5 4 3 4 2 7 14 20 11
22 22 20 19 14 15 15 14 13 5 7 7 5 5 3 3 4 4 5 2 3 2 2 3 5 4 2 2 3 3 2 2 2 1 2 2 3 2 3 4 3 2 9 8 9 15 12
19 20 19 18 16 15 16 15 14 5 8 4 1 2 6 2 2 4 2 3 2 2 5 3 3 2 0 2 2 3 3 2 2 3 1 2 1 2 5 3 2 6 7 10 9 11 6
15 15 15 14 14 15 17 19 19 14 7 5 2 4 5 2 2 2 1 2 3 2 4 1 2 3 3 5 2 3 2 3 6 6 5 1 1 2 3 3 1 9 6 8 12 15 15
15 14 14 15 16 16 17 17 16 19 14 6 2 4 5 4 2 1 3 4 3 1 2 1 1 1 2 2 2 6 6 5 4 2 5 6 1 2 4 2 6 11 7 8 9 10 14
12 12 12 12 13 14 15 15 16 13 9 5 3 1 5 8 5 3 4 2 3 1 3 1 2 3 2 3 5 4 2 4 4 7 1 6 4 4 1 4 6 10 4 3 3 7 10
9 10 10 10 11 12 12 13 14 13 11 5 2 2 5 5 3 5 4 5 4 2 2 2 1 3 3 2 3 3 3 2 0 2 3 3 3 10 4 4 9 10 5 1 5 7 4
6 7 6 8 9 10 11 11 10 10 9 4 0 3 4 3 3 6 6 6 3 2 4 5 4 4 3 4 4 3 2 4 1 4 6 8 6 5 3 3 10 4 2 7 5 9 17
4 6 6 6 7 9 9 8 7 6 5 4 2 3 2 5 4 2 4 2 3 7 6 2 6 3 3 5 1 3 1 2 3 3 1 4 7 5 9 10 4 6 8 7 2 10 14
Wind_Direction
317 309 314 318 315 303 299 299 307 312 322 319 322 278 265 270 287 298 301 293 207 193 182 170 164 159 99 269 263 353 355 17 32 63 70 13 92 103 85 337 323 72 358 48 30 55 65
312 318 314 304 303 304 297 306 301 296 311 314 313 297 258 240 266 282 299 277 330 205 176 145 145 150 136 228 344 355 317 103 81 92 115 122 176 128 120 172 285 356 80 85 45 49 63
310 309 303 298 289 291 293 301 296 297 301 305 308 309 256 229 249 268 282 255 294 232 177 152 154 143 109 229 51 328 347 107 46 123 122 114 116 135 129 150 215 119 100 42 29 5 84
298 295 290 279 289 288 282 288 296 284 288 300 305 307 250 216 235 259 272 246 205 146 198 155 146 100 230 254 292 339 339 50 73 76 99 130 81 99 90 105 21 60 50 75 305 205 339
294 290 293 294 294 287 268 279 286 295 291 296 302 299 224 205 214 255 266 238 174 85 199 142 93 118 248 92 167 165 224 153 103 50 61 84 67 93 82 115 56 23 157 188 316 327 136
310 299 298 297 297 301 277 262 274 282 285 295 301 281 199 193 205 254 257 184 150 106 134 65 73 116 241 213 161 144 318 129 118 121 77 62 56 96 54 124 194 172 171 219 209 348 45
305 304 299 299 298 302 303 276 253 270 283 299 312 232 179 181 205 260 194 154 153 157 216 150 188 177 130 132 72 50 155 86 81 68 136 2 135 190 182 189 130 121 121 167 240 355 167
296 300 300 294 294 295 296 292 308 259 263 299 319 192 166 180 198 268 145 217 52 118 142 140 177 40 105 193 99 26 160 116 142 139 122 90 225 187 157 143 138 139 139 191 26 14 98
294 290 290 287 286 280 285 286 286 292 254 270 297 184 151 152 106 64 116 79 302 171 33 347 134 79 169 166 123 179 139 107 101 114 178 166 194 168 138 142 141 100 158 168 161 65 59
286 283 280 276 267 272 268 270 272 285 253 214 259 166 144 131 66 141 97 278 18 13 87 219 180 232 232 151 66 113 180 130 146 147 115 224 112 143 118 174 135 191 181 148 138 103 236
298 282 271 264 258 250 250 249 247 260 228 198 231 145 124 101 146 81 136 221 153 64 179 161 148 75 69 106 142 324 236 68 150 156 129 221 166 151 144 188 157 219 148 148 128 107 91
306 294 278 262 244 228 227 221 219 222 208 181 155 125 116 58 46 135 183 215 76 108 218 161 128 151 131 240 97 118 138 58 131 98 54 147 187 152 159 124 139 142 92 51 53 75 317
318 308 287 260 245 215 204 200 195 189 175 152 133 100 68 84 155 135 325 32 29 120 300 38 56 143 149 154 101 112 158 165 149 134 169 125 193 164 125 92 46 101 102 38 15 10 230
334 322 301 262 209 198 179 175 171 161 145 130 107 78 53 58 20 107 58 79 86 353 349 345 323 167 168 138 105 116 140 181 247 100 125 156 260 164 188 164 167 182 154 160 193 196 220
2 359 11 142 161 154 158 155 145 144 131 118 101 51 50 2 337 9 74 73 147 240 316 336 71 331 100 85 95 104 181 212 183 186 155 143 253 69 168 162 147 194 206 155 106 44 48
22 26 52 88 114 132 134 131 126 128 127 117 93 80 38 332 354 44 75 123 88 18 28 329 88 27 36 16 51 155 149 0 352 175 201 205 147 53 174 123 24 159 153 99 10 136 259
40 46 61 89 104 112 116 118 124 127 121 92 57 71 336 340 47 46 99 95 84 39 20 33 113 105 91 65 349 23 75 44 2 344 13 227 94 5 134 214 167 144 173 141 129 155 181
49 55 70 81 93 100 105 109 105 99 85 48 65 74 307 15 56 53 82 129 326 45 10 79 100 89 125 138 63 56 130 112 48 320 331 204 154 181 192 11 5 313 191 162 142 225 223
57 61 67 79 92 102 103 102 101 93 50 101 77 71 340 77 107 81 41 37 50 55 37 35 67 54 7 131 114 150 243 168 130 75 31 349 206 144 24 355 6 219 170 194 116 112 203
61 64 69 71 78 83 88 89 83 99 119 82 98 72 346 48 117 118 131 331 78 19 80 52 112 92 86 36 62 157 225 106 208 124 148 2 284 244 193 140 137 188 197 195 197 200 244
63 72 70 73 68 62 48 22 48 62 92 95 30 89 190 330 345 82 65 145 91 75 36 43 37 89 128 105 75 171 165 85 119 55 214 134 291 300 336 346 352 351 278 211 210 229 224
62 64 72 88 91 46 36 18 348 37 79 78 122 134 72 74 22 32 3 326 119 301 95 19 74 34 54 116 149 208 80 28 60 338 286 32 194 127 339 344 117 315 271 251 240 253 250
59 63 69 72 67 59 47 43 37 59 66 96 118 58 97 39 10 78 262 203 168 110 357 55 123 102 5 318 298 250 213 258 204 155 304 136 185 89 262 302 115 334 224 215 249 239 222
60 64 68 71 67 58 50 46 49 61 95 116 157 112 89 122 71 158 126 111 121 75 141 25 122 135 346 353 2 17 57 274 232 217 190 144 100 102 250 26 188 245 221 195 216 240 234
51 50 53 58 56 57 57 54 52 55 61 86 124 106 114 115 159 200 136 110 91 348 82 173 18 184 272 42 76 16 341 2 316 284 203 179 131 333 134 219 294 306 258 182 165 256 234
47 46 51 55 51 49 49 50 50 56 86 83 71 118 102 120 245 148 124 99 148 137 18 266 252 253 121 81 65 119 219 223 341 356 0 175 190 134 357 156 202 235 31 9 73 273 315
43 39 44 45 45 42 39 39 41 44 55 90 58 36 91 105 245 131 154 168 152 105 142 273 1 23 355 95 89 140 261 175 13 133 159 160 193 216 206 227 271 262 249 246 150 253 324
43 35 35 41 41 37 30 25 25 31 41 76 320 351 104 114 253 179 173 134 100 99 135 246 51 347 42 62 108 219 125 234 72 216 186 179 165 201 158 199 267 172 153 196 218 327 306
29 30 24 28 37 31 26 18 15 18 43 73 66 345 24 89 191 195 202 206 158 180 135 286 166 191 195 84 52 101 273 21 164 265 183 260 195 191 186 218 228 186 213 247 283 263 289